[[{"header":{"parameterUnit":"m.s-1","parameterCategory":1,"la1":30.2992,"la2":30.254,"lo1":-89.0895,"lo2":-89.0443,"dy":0.0025,"dx":0.0025,"nx":19,"ny":19,"refTime":"2026-05-11T21:00:00:Z","depth":0,"parameterNumber":2,"parameterNumberName":"U-component_of_WINDS"},"data":[0,0,0,1.896,1.8965,1.9214,1.9215,1.9504,1.9506,0,0,0,0,0,0,0,0,0,0,0,1.8869,1.8871,1.896,1.8966,1.9214,1.9215,1.9504,1.9507,0,0,0,0,0,0,0,0,0,0,0,1.8869,1.887,1.8872,1.8967,1.9213,1.9215,1.9503,1.9326,0,0,0,0,0,0,0,0,0,0,1.909,1.8989,1.887,1.8872,1.8968,1.9213,1.9215,1.9318,1.9337,1.9379,0,1.9412,0,1.9464,1.9524,1.9525,0,0,0,1.8979,1.8973,1.9055,1.8872,1.897,1.9213,1.9106,1.9329,1.9351,1.9405,1.9416,1.9428,1.9468,1.9526,1.9527,1.9724,1.9724,0,0,1.8965,1.8905,1.904,1.9068,1.9028,1.9097,1.9113,1.9343,1.9352,1.9418,1.9435,1.9473,1.9527,1.9529,1.9724,1.9724,0,0,0,1.8917,1.8895,1.8973,1.9056,1.9102,1.9104,1.9122,1.9342,1.9372,1.9439,1.9476,1.9529,1.9532,1.9724,1.9724,1.9679,0,0,0,1.8909,1.8867,1.8966,1.8931,1.9097,1.9225,1.9116,1.9356,1.9384,1.9475,1.9529,1.9535,1.9724,1.9724,1.968,1.9668,0,0,0,1.8859,1.8861,1.8891,1.8928,1.9032,1.9223,1.9267,1.9363,1.9406,1.9525,1.9535,1.9723,1.9724,1.968,1.9669,1.9701,0,0,0,1.8789,1.8849,1.8889,1.8971,1.9029,1.9193,1.9266,1.9391,1.9488,1.953,1.9724,1.9724,1.968,1.967,1.9701,1.9717,1.9717,0,0,1.8831,1.8852,1.8905,1.8948,1.9088,1.916,1.9294,1.9441,1.9508,1.9648,1.9654,1.9679,1.9669,1.9701,1.9744,1.9744,0,0,0,1.8897,1.8934,1.8985,1.9073,1.9185,1.928,1.9412,1.9466,1.9588,1.9567,1.9702,1.9698,1.9719,1.9729,1.9729,1.9751,1.9726,1.9726,1.9726,1.8871,1.8952,1.9044,1.9155,1.9239,1.9374,1.945,1.9546,1.9605,1.9634,1.9677,1.9693,1.9702,1.9703,1.9724,1.9692,1.9692,1.9692,1.9692,1.8939,1.9004,1.9078,1.9194,1.928,1.9379,1.951,1.9548,1.9652,1.9668,1.9691,1.97,1.97,1.9723,1.9689,1.969,1.969,1.969,1.969,1.893,1.8975,1.9039,1.9173,1.9268,1.9379,1.9474,1.955,1.9621,1.9644,1.9696,1.9697,1.9707,1.9663,1.9663,1.9663,1.9664,1.9664,1.9664,1.8895,1.8969,1.904,1.9162,1.9228,1.9324,1.9458,1.9525,1.9618,1.9666,1.9666,1.9721,1.9685,1.9674,1.9665,1.9665,1.9664,1.9664,1.9664,1.8934,1.8936,1.9046,1.9111,1.9261,1.9349,1.9443,1.9572,1.9639,1.9684,1.9734,1.9695,1.9722,1.9723,1.9714,1.9716,1.9716,1.9716,1.9716,1.8925,1.8946,1.9074,1.9173,1.928,1.9375,1.9496,1.9601,1.9709,1.9755,1.9766,1.9761,1.9758,1.9787,1.9787,1.978,1.9798,1.9798,1.9799,1.8953,1.8987,1.9075,1.918,1.9302,1.9405,1.9521,1.9632,1.9756,1.9803,1.9793,1.9789,1.9782,1.9776,1.9822,1.9819,1.9808,0,0]},{"header":{"parameterUnit":"m.s-1","parameterCategory":1,"la1":30.2992,"la2":30.254,"lo1":-89.0895,"lo2":-89.0443,"dy":0.0025,"dx":0.0025,"nx":19,"ny":19,"refTime":"2026-05-11T21:00:00:Z","depth":0,"parameterNumber":3,"parameterNumberName":"V-component_of_WINDS"},"data":[0,0,0,-1.9867,-1.9868,-1.9943,-1.9943,-2.0025,-2.0026,0,0,0,0,0,0,0,0,0,0,0,-1.9836,-1.9837,-1.9867,-1.9868,-1.9943,-1.9943,-2.0025,-2.0026,0,0,0,0,0,0,0,0,0,0,0,-1.9836,-1.9837,-1.9837,-1.9869,-1.9943,-1.9943,-2.0025,-1.9973,0,0,0,0,0,0,0,0,0,0,-1.9903,-1.9867,-1.9837,-1.9837,-1.9869,-1.9943,-1.9943,-1.9971,-1.9976,-1.9985,0,-1.9991,0,-2.001,-2.003,-2.003,0,0,0,-1.9874,-1.9862,-1.989,-1.9837,-1.987,-1.9943,-1.9911,-1.9974,-1.998,-1.9992,-1.9993,-1.9996,-2.0011,-2.0031,-2.0031,-2.0066,-2.0066,0,0,-1.987,-1.9845,-1.9886,-1.9894,-1.9882,-1.9908,-1.9913,-1.9978,-1.9976,-1.9993,-1.9998,-2.0013,-2.0031,-2.0032,-2.0067,-2.0066,0,0,0,-1.9854,-1.9842,-1.9869,-1.989,-1.9905,-1.991,-1.9916,-1.9973,-1.9984,-1.9999,-2.0014,-2.0031,-2.0032,-2.0067,-2.0066,-2.0038,0,0,0,-1.9852,-1.9833,-1.9866,-1.9852,-1.9903,-1.994,-1.991,-1.998,-1.9988,-2.0013,-2.0032,-2.0033,-2.0067,-2.0067,-2.0039,-2.0028,0,0,0,-1.9834,-1.9831,-1.9839,-1.985,-1.9882,-1.994,-1.9954,-1.9982,-1.9996,-2.003,-2.0033,-2.0067,-2.0067,-2.004,-2.0029,-2.0031,0,0,0,-1.9808,-1.9811,-1.9838,-1.9848,-1.9881,-1.9922,-1.9954,-1.9985,-2.0011,-2.0032,-2.0067,-2.0067,-2.004,-2.0031,-2.0031,-2.0026,-2.0022,0,0,-1.9798,-1.9809,-1.9817,-1.9843,-1.9873,-1.9912,-1.9938,-1.9984,-2.001,-2.0046,-2.0047,-2.0039,-2.003,-2.0031,-2.0009,-2.0005,0,0,0,-1.9805,-1.981,-1.9824,-1.9848,-1.9885,-1.9916,-1.9961,-1.9979,-2.0012,-2.0024,-2.004,-2.0036,-2.0037,-2.0036,-2.0033,-2.0036,-2.0065,-2.0065,-2.0065,-1.9753,-1.9788,-1.9803,-1.9847,-1.9871,-1.992,-1.9942,-1.9974,-2.0,-2.0003,-2.0014,-1.9996,-1.9994,-1.9992,-1.9995,-2.0015,-2.0015,-2.0014,-2.0014,-1.9742,-1.9754,-1.9792,-1.982,-1.9857,-1.9881,-1.9929,-1.9947,-1.9975,-1.9991,-1.9994,-2.0007,-1.9987,-1.9991,-2.0013,-2.0013,-2.0013,-2.0013,-2.0013,-1.9711,-1.9723,-1.9746,-1.9787,-1.9815,-1.986,-1.9886,-1.9918,-1.9948,-1.9952,-1.9967,-1.9967,-1.9971,-1.9957,-1.9957,-1.9957,-1.9957,-1.9957,-1.9957,-1.9669,-1.9696,-1.9714,-1.9757,-1.9778,-1.981,-1.9862,-1.9884,-1.9916,-1.9937,-1.9938,-1.9964,-1.9979,-1.9982,-1.9956,-1.9956,-1.9956,-1.9956,-1.9956,-1.9641,-1.9654,-1.9681,-1.9703,-1.9757,-1.9783,-1.9826,-1.9868,-1.9891,-1.9903,-1.993,-1.9937,-1.9949,-1.9952,-1.9954,-1.9923,-1.9923,-1.9923,-1.9923,-1.9614,-1.9626,-1.9663,-1.9696,-1.9732,-1.9774,-1.9806,-1.9847,-1.9891,-1.9908,-1.9918,-1.9924,-1.9926,-1.9938,-1.9941,-1.9943,-1.9909,-1.9909,-1.9909,-1.96,-1.9616,-1.9636,-1.9681,-1.9727,-1.9765,-1.9796,-1.9833,-1.9885,-1.991,-1.9922,-1.9922,-1.9933,-1.9935,-1.9957,-1.996,-1.9966,0,0]}]]